Regional Weather Roundup
Issued by NWS

Home | Current Version | Previous Version | Text Only | Print | Product List | Glossary On
Versions: 1 2 3 4 5 6 7 8 9 10 11 12 13 14 15 16 17 18 19 20 21 22 23 24 25 26 27 28 29 30 31 32 33 34 35 36 37 38 39 40 41 42 43 44 45 46 47 48 49 50
000
ASHW40 PHFO 221732
RWRHI

WEATHER ROUNDUP FOR HAWAII
NATIONAL WEATHER SERVICE HONOLULU HI
700 AM HST SAT JUL 22 2017

THIS IS AN AUTOMATED REPORT THAT HAS NOT BEEN QUALITY CONTROLLED.

NOTE..."FAIR" INDICATES FEW OR NO CLOUDS BELOW 12,000 FEET WITH NO
SIGNIFICANT WEATHER AND/OR OBSTRUCTIONS TO VISIBILITY.

* - THESE SITES REPORT LIMITED FIELDS
# - BUOY DATA PROVIDED BY PACIFIC ISLANDS OCEAN OBSERVING SYSTEM.

HIZ001>004-221800-
KAUAI-NIIHAU-

CITY           SKY/WX    TMP DP  RH WIND       PRES   REMARKS
LIHUE APT      CLOUDY    81  72  74 E14       30.01R
PORT ALLEN*      N/A     77 N/A N/A NE13        N/A
POIPU*           N/A     77 N/A N/A NE8G16      N/A
PRINCEVILLE*     N/A     73 N/A N/A SE3         N/A
KOKOLE POINT*  NOT AVBL
MOLOAA DAIRY*    N/A     77  72  83 E8G14       N/A
WAIMEA HTS*    NOT AVBL
PUU OPAE*      NOT AVBL
PUU LUA*       NOT AVBL
MAKAHA RIDGE*    N/A     72  66  83 CALM        N/A
$$

HIZ005>011-221800-
OAHU-

CITY           SKY/WX    TMP DP  RH WIND       PRES   REMARKS
HONOLULU       MOSUNNY   78  67  68 E8        29.97R
KALAELOA       MOSUNNY   78  67  68 NE3       29.99R
KANEOHE MCB    NOT AVBL
WHEELER FIELD  CLOUDY    75  66  73 N5        29.99R
BELLOWS*         N/A    N/A N/A N/A NE17        N/A
KAHUKU*          N/A    N/A N/A N/A NE8G17      N/A
WHEELER*       NOT AVBL
WAIANAE HARBOR NOT AVBL
DILLINGHAM*      N/A     73  66  78 W1G8        N/A
KAHUKU TRN*      N/A     72  63  73 W7G17       N/A
KAWAILOA*        N/A     72  66  83 E6G17       N/A
KII*             N/A     79  70  73 CALM        N/A
MAKUA RANGE*     N/A     79  64  61 W9          N/A
OAHU FOREST NW NOT AVBL
SCHOFIELD BRK*   N/A     73  68  83 MISG        N/A
SCHOFIELD S*   NOT AVBL
WAIANAE VLY*   NOT AVBL
KUAOKALA*      NOT AVBL
HONOULIUULI*   NOT AVBL
MOKUOLOE IS*   NOT AVBL
PALEHUA*       NOT AVBL
WAIAWA PHB*    NOT AVBL
$$

HIZ012>013-221800-
MOLOKAI-

CITY           SKY/WX    TMP DP  RH WIND       PRES   REMARKS
MOLOKAI AIRPT  CLOUDY    81  71  71 NE9G18    29.99R
KALAUPAPA      NOT AVBL
MAKAPULAPAI*     N/A     79  70  73 E17G26      N/A
MOLOKAI 1*     NOT AVBL
PUU ALII*        N/A     61  61 100 VRB2G12     N/A
$$

HIZ016-221800-
KAHOOLAWE-

CITY           SKY/WX    TMP DP  RH WIND       PRES   REMARKS
KAHOOLAWE*     NOT AVBL
HAKIOAWA*        N/A     76  68  76 MISG      30.41R
HONOKANAIA*      N/A     79  67  67 NE10G24   29.89R
KANELOA*         N/A     73  68  83 E16G26    30.01R
KEALIALALO*    NOT AVBL
LUA MAKIKA*    NOT AVBL
$$

HIZ014>015-221800-
LANAI-

CITY           SKY/WX    TMP DP  RH WIND       PRES   REMARKS
LANAI CITY     FAIR      72  68  87 NE5       30.04R
LANAI 1*       NOT AVBL
$$

HIZ017>028-221800-
MAUI-

CITY           SKY/WX    TMP DP  RH WIND       PRES   REMARKS
KAHULUI        MOSUNNY   78  69  73 NE12      29.97R
KAPALUA-W MAUI MOSUNNY   75  66  73 NE12      29.98R
HANA AIRPORT   PTSUNNY   77  72  83 E7        30.03R
HANA*            N/A     75 N/A N/A S3          N/A
HALEAKALA SUMM   N/A     46  41  81 SE24G37     N/A
MAALAEA BAY*     N/A     79 N/A N/A N16G24      N/A
HALEAKALA*     NOT AVBL
KAUPO GAP*     NOT AVBL
KULA 1*          N/A     59  41  51 NE3G16      N/A
$$

HIZ023>026-221800-
BIG ISLAND OF HAWAII COAST AND LOWER SLOPES-

CITY           SKY/WX    TMP DP  RH WIND       PRES   REMARKS
KAILUA KONA    MOSUNNY   78  68  71 SE5       29.94R
HILO           PTSUNNY   72  71  97 W7        30.00R
HONOKAA*         N/A     70 N/A N/A VRB1        N/A
KAWAIHAE MWT*    N/A     79 N/A N/A N3          N/A
KAWAIHAE*        N/A     81 N/A N/A N3        29.95R
SOUTH POINT*     N/A     73 N/A N/A N13G18      N/A
UPOLU AIRPORT* NOT AVBL
KAMUELA*       NOT AVBL
HAKALAU*         N/A     57  55  92 S5G10       N/A
KALOKO-HONOKO*   N/A     79  70  73 NE2       29.94R
PALI 2*          N/A     70  63  78 S13G25      N/A
KEALAKOMO*       N/A     79  66  65 N17G25      N/A
KAUPULEHU*     NOT AVBL
KAPAPALA*        N/A     65  64  98 NW6         N/A
LOWER KAHUKU*    N/A    N/A N/A N/A N2G12       N/A
PUHE CS*         N/A     79  64  61 N2          N/A
PUHO CS*         N/A     75  67  76 E2          N/A
PTA KEAMUKU*   NOT AVBL
WAIKOLOA*      NOT AVBL
$$

HIZ027>028-221800-
BIG ISLAND OF HAWAII INTERIOR AND SUMMMITS-

CITY           SKY/WX    TMP DP  RH WIND       PRES   REMARKS
BRADSHAW FIELD MOSUNNY   61  52  72 S15       30.28R
MK VISITOR CEN   N/A     52  39  62 E12         N/A
MAUNA KEA*       N/A     32  32 100 E22         N/A  WCI  19
MAUNA LOA*       N/A     45  32  61 MISG        N/A
MAUNA LOA 1*   NOT AVBL
PTA KIPUKA*      N/A     68  68 100 SE3         N/A
PTA RANGE 17*    N/A     61  54  77 SE12G21     N/A
PTA WEST*        N/A     57  54  88 NE1G8       N/A
NENE CABIN*      N/A     55  54  94 NE9G20      N/A
AHUMOA*        NOT AVBL
PTA PORTABLE*  NOT AVBL
PUU MALI*        N/A     57  54  88 W5          N/A
$$

HIC003-221800-
NORTHWEST ISLANDS-

CITY           SKY/WX    TMP DP  RH WIND       PRES   REMARKS
MIDWAY ISLAND  PTCLDY    79  75  89 E8        30.06R
MIDWAY NOS*      N/A     79 N/A N/A MISG      30.06R
FRENCH FRIGATE NOT AVBL
$$

PHZ110>124-180-221800-
BUOY REPORTS

STATION/POSITION TIME  TEMP    WIND        PRES    WAVE   SWELL
                       AIR SEA DIR/SP/G            HT/PER HT/DIR
                 (UTC) (F)     (DEG/KT/KT) (MB)    (FT/S) (FT/D)
BUOY 51001       1710   79 81   80/ 10/ 14 1017.0
BUOY 51101       1650   79 81   80/ 10/ 12 1017.1R   6/10   7/100
BUOY 51100       NOT AVBL
BUOY 51002       1710   76 80   90/  6/ 10 1013.5
BUOY 51003       1650   77 81   40/ 12/ 14 1013.8R   6/10   5/ 90
BUOY 51004       1650      79   80/ 14/ 17 1013.7R   8/11   7/100
WAIMEA BAY#      1702      78                N/A     4/ 9   2/ 50
MOKAPU POINT#    1704      79                N/A     7/10   3/ 90
LANAI#           NOT AVBL
BARBERS PT 2#    NOT AVBL
PAUWELA#         1709      80                N/A     8/ 9   3/ 90
HILO#            1657      79                N/A     7/ 9   3/ 80
KANEOHE BAY#     1655      79                N/A     6/ 8   2/ 70
KANEOHE BAY 2#   NOT AVBL
HANALEI#         1652      80                N/A     6/13   3/ 90
KAHULUI HARBOR   1700   78 80   30/ 11/ 16 1015.1
HONOLULU HARBOR  1700   79 81   60/  4/  7 1015.8
PEARL HARBOR#    1700      80                N/A     3/13   2/170
KILO NALU        NOT AVBL
HILO HARBOR      1700   73 80  250/  7/ 10 1015.6
MOKUOLOE         1636   79 81   90/  8/ 13 1015.3R
NAWILIWILI       1700   78      70/ 13/ 15 1015.8
WHOTS BUOY       NOT AVBL
BUOY 51028       NOT AVBL
$$

......................KEY........................................
  SKY/WX - SKY CONDITIONS/PRESENT WEATHER
  TMP    - TEMPERATURE IN FAHRENHEIT
  DWPT   - DEWPOINT IN FAHRENHEIT
  RH     - RELATIVE HUMIDITY IN PERCENT
  WIND   - DIRECTION AND SPEED /MPH FOR ISLANDS...KTS FOR BUOYS/
  PRES   - MEAN SEA LEVEL PRESSURE IN INCHES OF HG
  VSB    - VISIBILITY IN MILES
  HX     - HEAT INDEX
  WCI    - WIND CHILL INDEX
  VRB    - VARIABLE WIND DIRECTION
  N/A    - NOT AVAILABLE



USA.gov is the U.S. government's official web portal to all federal, state and local government web resources and services.